Temp
16 16 17 17 18 18 19 19 19 20 20 20 20 19 19 19 19 18 19 18 19 20 20 21 21 21 21 22 21 22 21 21 22 23 23 24 24 24 24 25 24 23 22 21 21
16 17 17 18 18 19 19 20 19 19 19 20 19 19 19 20 20 18 18 19 19 20 19 20 21 22 23 23 23 23 21 22 23 23 22 24 24 24 24 25 22 21 21 21 21
17 18 18 18 19 20 20 20 20 19 19 19 19 19 20 20 20 18 18 19 19 20 19 20 22 23 24 23 23 24 22 24 23 21 22 23 24 23 23 20 20 20 20 20 19
17 18 18 19 19 20 20 20 20 20 19 19 19 20 20 20 20 18 18 19 19 20 21 22 23 23 24 23 24 23 23 23 22 22 22 22 22 22 21 20 19 18 18 18 18
18 18 18 19 19 19 19 19 20 20 20 20 20 20 20 19 17 17 18 18 19 20 20 21 22 23 23 24 24 23 23 23 22 21 22 22 23 22 20 19 19 18 17 16 15
18 18 18 19 19 19 19 19 19 19 19 19 20 20 20 18 17 18 18 18 19 19 20 20 20 21 23 23 22 22 23 23 23 22 21 21 21 21 21 19 19 19 17 15 14
18 18 19 19 19 19 19 19 19 19 19 19 20 19 19 17 18 18 18 19 19 19 19 19 20 21 22 23 21 22 22 22 22 22 20 21 21 21 21 20 20 20 16 14 14
18 18 19 19 20 19 19 19 19 19 19 20 20 19 18 18 18 18 19 19 19 19 20 20 20 21 22 22 22 23 24 22 21 22 21 20 19 20 22 21 19 19 17 15 13
18 18 18 19 19 19 19 18 19 19 19 20 20 20 18 18 18 19 18 19 20 20 20 20 20 22 21 20 22 21 19 20 21 21 19 19 17 20 21 19 18 17 16 15 14
17 18 18 19 19 19 19 19 18 19 19 20 20 20 18 18 18 18 19 20 20 21 21 22 22 19 18 18 16 17 18 19 19 19 18 17 17 19 20 17 16 16 15 14 14
17 18 18 19 19 19 19 18 19 19 17 18 18 18 18 18 18 19 20 20 22 22 21 21 17 16 17 18 18 18 18 18 18 19 17 16 16 17 20 17 15 15 14 13 13
18 18 18 19 19 19 18 18 17 17 18 18 18 17 17 18 18 17 19 20 21 20 21 19 16 17 18 18 17 19 18 17 16 18 16 16 16 16 16 14 14 13 12 12 12
17 18 18 18 19 18 19 18 18 17 19 18 18 17 17 17 16 16 16 18 20 19 19 16 16 18 18 17 16 17 16 14 14 15 15 16 16 13 13 13 12 13 12 12 11
17 18 18 18 18 17 18 18 18 18 21 19 18 17 17 17 17 16 15 16 19 17 18 17 17 17 17 16 14 15 14 14 14 13 13 15 12 16 12 12 13 12 11 11 11
17 18 18 18 17 18 17 17 18 18 21 18 18 17 17 16 16 16 16 16 16 17 18 15 15 15 16 14 14 14 14 13 14 13 13 15 13 14 13 12 10 11 11 10 10
17 17 18 18 17 17 17 17 17 19 17 17 18 17 19 17 16 17 15 15 15 17 16 15 15 14 13 15 15 14 14 13 14 13 12 13 11 12 11 10 10 11 10 10 9
17 17 18 17 16 17 17 17 19 20 18 17 16 17 17 16 16 16 15 13 12 14 15 17 15 14 13 13 15 12 11 10 12 12 13 13 10 9 10 10 11 10 10 9 9
17 17 17 17 17 17 17 18 20 18 17 17 16 17 15 15 16 15 16 13 12 12 13 13 14 14 14 12 11 11 11 9 9 9 9 11 10 10 11 12 11 10 10 9 9
17 17 15 17 18 18 16 18 14 16 15 15 17 18 16 16 15 17 12 12 10 10 10 11 13 15 12 12 11 11 9 9 8 9 7 9 12 12 12 10 10 9 9 8 8
17 15 17 17 18 18 18 15 14 13 14 15 17 16 16 14 15 15 13 11 11 10 10 11 8 12 13 12 12 11 10 7 8 4 5 7 8 7 7 8 9 8 8 8 8
16 17 17 17 18 18 15 13 12 12 12 14 15 16 14 13 14 14 12 9 9 9 10 10 9 12 12 12 10 9 9 9 8 7 4 4 5 8 7 8 8 7 7 7 7
16 18 17 17 17 16 13 14 12 12 12 12 13 13 13 12 13 13 11 9 7 8 9 9 7 7 10 9 10 9 8 7 3 3 3 2 3 7 7 7 7 7 7 6 6
15 15 16 17 13 12 12 10 11 12 11 12 11 11 12 11 11 11 10 7 7 7 6 6 8 5 9 8 9 7 7 6 5 3 2 1 3 8 4 3 2 3 4 5 5
14 13 13 14 14 15 14 12 9 9 9 10 10 11 11 11 10 9 10 8 7 6 5 6 6 6 4 6 5 4 5 5 4 2 2 3 4 5 2 2 1 1 5 5 4
13 9 9 8 8 9 11 12 10 9 9 10 10 10 9 5 10 9 9 9 7 6 7 6 4 6 6 6 6 6 5 5 2 4 2 2 2 2 0 2 3 4 4 3 3
12 10 9 5 7 9 8 11 11 9 10 9 10 9 9 8 8 7 6 7 7 7 6 5 3 4 4 6 5 4 5 4 4 4 3 3 2 1 1 3 4 3 2 1 2
12 11 11 6 9 10 9 11 10 8 7 9 9 9 8 5 5 5 5 5 5 5 4 3 3 2 2 4 4 4 3 3 3 3 3 1 0 2 2 3 3 3 2 1 3
Height
1524 1522 1520 1518 1516 1514 1512 1510 1509 1507 1507 1507 1507 1508 1510 1511 1512 1513 1511 1514 1512 1511 1510 1508 1508 1509 1507 1508 1507 1505 1508 1511 1512 1510 1508 1507 1506 1507 1507 1506 1508 1511 1512 1514 1514
1524 1522 1520 1518 1516 1513 1511 1510 1509 1508 1507 1508 1508 1510 1511 1511 1515 1513 1516 1515 1513 1512 1510 1510 1510 1508 1508 1508 1507 1505 1510 1512 1509 1510 1511 1509 1509 1509 1508 1506 1511 1513 1515 1516 1514
1524 1522 1520 1518 1515 1513 1511 1510 1509 1508 1508 1509 1510 1511 1513 1513 1515 1519 1517 1515 1514 1512 1511 1511 1510 1509 1507 1507 1507 1505 1511 1508 1510 1512 1512 1510 1508 1508 1508 1512 1514 1515 1516 1516 1516
1525 1523 1521 1518 1515 1513 1511 1511 1510 1509 1509 1510 1512 1514 1514 1515 1521 1521 1518 1516 1514 1513 1513 1511 1510 1509 1507 1508 1507 1508 1510 1510 1511 1512 1512 1510 1509 1508 1510 1514 1515 1517 1517 1517 1516
1526 1524 1521 1519 1516 1514 1512 1511 1511 1511 1511 1512 1514 1515 1516 1518 1524 1523 1519 1518 1516 1516 1514 1513 1511 1510 1509 1508 1507 1508 1511 1511 1512 1512 1512 1511 1508 1508 1511 1514 1515 1515 1516 1516 1516
1527 1525 1523 1520 1518 1516 1514 1514 1514 1513 1514 1516 1517 1516 1518 1522 1526 1524 1521 1519 1517 1516 1515 1514 1514 1513 1511 1511 1511 1512 1511 1511 1511 1512 1513 1514 1510 1508 1510 1512 1513 1513 1514 1516 1518
1528 1526 1523 1521 1519 1518 1517 1517 1517 1517 1518 1519 1519 1520 1519 1528 1527 1524 1522 1521 1519 1518 1517 1515 1514 1514 1514 1512 1513 1512 1511 1510 1511 1512 1514 1513 1505 1506 1509 1512 1513 1515 1514 1517 1519
1528 1526 1524 1522 1521 1520 1520 1519 1520 1520 1521 1522 1522 1522 1527 1530 1528 1526 1523 1524 1522 1520 1518 1516 1515 1515 1514 1513 1510 1508 1508 1515 1513 1513 1516 1519 1522 1511 1511 1511 1513 1515 1515 1516 1519
1529 1527 1525 1523 1521 1521 1521 1521 1522 1523 1524 1523 1524 1525 1531 1534 1530 1529 1526 1524 1523 1521 1520 1517 1516 1517 1517 1513 1512 1516 1531 1526 1520 1514 1517 1519 1520 1509 1509 1507 1509 1511 1513 1515 1518
1530 1528 1527 1525 1523 1523 1523 1524 1525 1526 1525 1525 1527 1528 1536 1537 1533 1530 1527 1526 1524 1521 1520 1520 1518 1524 1526 1526 1547 1541 1534 1527 1523 1517 1516 1518 1513 1506 1506 1506 1509 1511 1513 1516 1517
1532 1530 1528 1527 1525 1524 1525 1526 1528 1531 1530 1536 1538 1537 1539 1537 1536 1530 1526 1526 1524 1523 1522 1523 1531 1541 1537 1535 1534 1532 1531 1529 1522 1517 1518 1511 1506 1499 1496 1499 1506 1511 1514 1516 1518
1533 1531 1529 1527 1526 1524 1524 1525 1527 1534 1538 1539 1540 1540 1539 1538 1536 1533 1529 1528 1527 1528 1522 1529 1543 1540 1537 1535 1535 1528 1528 1530 1526 1517 1521 1509 1504 1499 1499 1506 1512 1517 1522 1524 1525
1534 1531 1529 1528 1527 1526 1525 1526 1529 1531 1535 1542 1541 1541 1542 1542 1542 1540 1536 1533 1531 1531 1530 1537 1544 1539 1536 1540 1541 1535 1538 1540 1539 1524 1514 1510 1499 1503 1508 1512 1516 1520 1522 1524 1526
1534 1532 1530 1528 1531 1529 1529 1530 1530 1531 1531 1546 1545 1546 1545 1543 1545 1545 1541 1540 1535 1539 1537 1542 1543 1540 1538 1542 1546 1543 1541 1540 1534 1533 1531 1516 1527 1505 1512 1516 1518 1521 1524 1526 1526
1535 1533 1531 1530 1531 1530 1531 1530 1531 1533 1540 1551 1549 1549 1548 1548 1553 1549 1545 1541 1543 1541 1539 1550 1547 1546 1545 1550 1548 1545 1541 1535 1530 1529 1528 1513 1526 1515 1510 1519 1525 1523 1523 1524 1524
1536 1534 1532 1531 1530 1531 1530 1530 1533 1538 1561 1553 1553 1552 1549 1551 1552 1552 1550 1547 1547 1544 1544 1549 1550 1552 1554 1549 1544 1543 1535 1519 1513 1522 1533 1526 1535 1520 1520 1527 1527 1527 1526 1525 1524
1536 1535 1534 1533 1533 1531 1530 1532 1536 1545 1552 1557 1557 1555 1554 1558 1556 1553 1552 1558 1564 1558 1551 1544 1549 1554 1555 1550 1543 1547 1546 1545 1534 1532 1528 1513 1530 1531 1527 1528 1528 1526 1522 1521 1520
1537 1535 1535 1533 1532 1531 1531 1534 1540 1550 1557 1559 1559 1555 1559 1560 1559 1559 1554 1563 1567 1565 1563 1561 1556 1555 1556 1559 1559 1554 1554 1564 1566 1555 1546 1531 1534 1534 1528 1530 1529 1528 1525 1523 1520
1537 1536 1537 1535 1533 1532 1533 1544 1564 1560 1563 1563 1556 1553 1559 1560 1560 1553 1570 1574 1581 1577 1576 1571 1559 1554 1556 1557 1560 1558 1567 1567 1568 1555 1557 1536 1520 1520 1521 1524 1527 1528 1525 1522 1517
1537 1538 1538 1537 1535 1534 1536 1558 1567 1571 1568 1563 1561 1565 1563 1569 1565 1565 1570 1583 1580 1583 1580 1575 1578 1557 1557 1556 1559 1563 1566 1575 1568 1587 1571 1543 1539 1537 1537 1533 1530 1525 1524 1520 1515
1538 1540 1541 1539 1537 1539 1550 1563 1568 1571 1572 1568 1567 1565 1570 1571 1572 1571 1577 1588 1588 1584 1582 1579 1579 1562 1557 1559 1565 1568 1570 1569 1571 1570 1574 1566 1550 1543 1541 1537 1532 1528 1529 1522 1518
1540 1541 1543 1541 1544 1549 1560 1564 1569 1572 1573 1573 1573 1575 1578 1580 1577 1579 1586 1592 1593 1590 1586 1586 1586 1582 1568 1567 1568 1571 1578 1580 1595 1589 1585 1582 1560 1547 1544 1542 1535 1530 1528 1524 1519
1544 1546 1545 1542 1552 1561 1568 1571 1572 1572 1576 1576 1578 1579 1580 1581 1584 1583 1588 1597 1598 1597 1596 1594 1583 1590 1572 1574 1571 1576 1578 1581 1585 1585 1582 1587 1565 1550 1551 1551 1544 1540 1533 1521 1517
1547 1550 1551 1550 1555 1558 1564 1570 1577 1578 1578 1579 1580 1580 1581 1584 1586 1588 1586 1594 1597 1599 1599 1597 1592 1593 1599 1591 1588 1584 1578 1577 1576 1581 1571 1571 1558 1554 1558 1553 1544 1542 1531 1522 1517
1550 1559 1561 1566 1566 1568 1567 1571 1577 1581 1583 1584 1586 1587 1589 1595 1588 1589 1590 1592 1595 1599 1598 1600 1602 1593 1591 1588 1583 1576 1577 1574 1579 1573 1576 1568 1565 1561 1561 1557 1544 1538 1531 1520 1515
1555 1560 1563 1569 1570 1571 1575 1576 1577 1582 1584 1585 1584 1586 1590 1594 1597 1594 1596 1596 1596 1598 1598 1600 1601 1595 1593 1583 1582 1581 1579 1580 1579 1575 1575 1570 1566 1564 1558 1550 1542 1535 1526 1520 1515
1558 1562 1564 1573 1572 1572 1576 1576 1578 1582 1587 1586 1585 1589 1590 1596 1602 1601 1600 1601 1601 1602 1601 1603 1602 1601 1594 1592 1581 1581 1587 1584 1582 1579 1574 1574 1572 1564 1553 1545 1540 1532 1528 1522 1515
Wind_Speed
12 13 13 12 13 13 12 12 11 8 3 5 7 12 15 18 15 12 12 10 8 6 11 11 7 5 3 2 4 5 2 7 8 9 6 9 8 10 4 4 13 15 15 11 10
14 14 14 13 14 14 12 9 8 7 4 6 10 16 19 19 17 20 14 10 8 7 9 8 6 6 1 3 2 2 4 5 5 8 7 9 8 5 7 5 13 13 13 12 9
14 14 14 14 15 15 11 7 7 7 5 7 13 17 13 5 7 13 11 9 10 10 8 8 5 4 1 3 7 5 4 1 6 3 7 8 8 6 8 7 9 9 9 10 10
14 14 14 14 16 13 10 7 7 8 6 7 13 12 10 4 3 14 11 11 12 14 8 5 3 0 1 5 3 3 6 6 2 6 5 6 6 6 8 6 6 6 7 9 11
13 13 13 15 15 11 10 9 9 10 10 11 15 10 9 11 11 13 12 13 11 10 12 8 10 7 5 4 4 7 4 3 4 1 3 8 1 4 8 6 3 3 6 10 11
13 13 12 15 14 12 10 10 11 13 16 17 12 6 7 10 11 12 12 11 12 11 11 12 7 7 4 6 7 4 2 3 3 4 7 11 15 3 9 9 6 3 5 9 10
14 13 12 14 11 10 10 11 13 13 16 20 18 16 24 10 10 13 11 12 11 13 11 9 8 10 7 1 4 4 4 6 7 9 6 19 7 8 11 6 5 12 7 9 9
14 14 12 13 9 8 8 10 12 14 15 18 15 13 10 17 14 16 10 7 8 8 11 8 8 4 4 5 6 5 2 2 5 7 6 11 7 12 6 3 5 8 9 8 7
14 13 11 12 8 8 11 13 11 10 10 11 12 8 7 12 19 16 14 11 9 8 9 10 6 7 20 11 3 9 7 11 8 14 8 7 10 12 24 8 6 8 6 6 4
14 13 9 11 10 15 17 19 21 8 6 9 10 12 11 10 17 14 10 12 9 11 2 6 2 12 11 12 5 10 7 8 6 9 6 12 15 10 23 6 6 4 6 4 7
14 12 7 10 6 4 6 3 3 8 28 18 12 14 10 11 5 22 17 9 12 7 5 16 10 8 8 5 4 6 7 10 9 9 15 8 17 15 17 11 10 6 7 10 10
12 11 8 12 11 3 3 5 12 13 15 16 17 13 11 11 9 27 18 11 10 9 11 6 8 7 7 8 8 7 8 7 11 12 17 14 19 6 12 11 13 14 13 11 13
12 12 11 5 12 14 10 16 20 13 6 6 11 11 19 10 11 19 21 10 6 9 9 9 5 9 2 7 12 10 5 9 13 21 16 9 5 6 10 16 11 8 16 18 18
12 12 11 5 7 8 8 13 9 3 3 6 9 9 16 2 6 19 19 6 7 8 6 6 8 5 4 6 9 7 9 15 17 12 4 7 6 2 9 8 6 19 18 18 20
12 12 10 10 6 9 4 5 7 2 3 5 5 7 11 11 11 16 16 9 7 5 4 4 5 7 5 5 6 5 12 20 20 16 12 8 3 4 9 9 12 16 20 22 23
12 12 11 9 11 11 6 5 7 2 4 3 4 10 6 12 9 9 14 11 3 4 5 4 4 4 6 12 9 9 14 23 14 7 2 12 6 4 5 6 5 14 19 20 24
11 11 10 12 8 9 4 5 2 5 1 4 5 6 4 9 7 10 12 16 9 7 6 4 4 5 10 8 5 16 10 5 5 1 5 21 10 7 9 6 9 14 21 23 21
11 9 11 16 13 9 5 3 4 5 6 1 2 3 5 9 5 11 5 5 13 10 5 5 1 7 7 4 6 10 4 2 6 4 13 13 3 3 7 11 18 17 17 22 22
9 9 12 13 10 8 2 5 5 5 4 6 3 4 4 4 2 3 7 6 9 13 6 6 1 1 6 2 3 6 6 5 6 10 9 4 5 10 17 21 22 28 25 26 23
6 6 17 10 9 9 3 6 4 6 7 4 6 6 6 7 7 7 7 8 4 10 11 3 6 1 4 5 5 2 1 4 3 5 6 7 22 9 23 26 20 20 27 28 27
7 1 15 8 9 9 4 5 5 7 5 8 5 2 4 4 5 5 6 6 9 9 10 6 3 1 9 5 7 3 4 4 5 3 7 10 7 17 22 21 19 23 29 29 28
7 1 11 7 3 7 4 3 4 5 5 5 5 8 6 7 6 4 6 6 8 12 7 7 4 4 11 10 8 6 8 6 2 7 7 10 17 10 20 31 31 24 23 28 29
4 4 11 8 3 4 6 5 7 3 7 4 5 7 5 4 1 6 5 3 10 13 9 9 2 5 1 3 2 6 7 10 10 6 15 11 11 20 30 30 36 36 32 27 32
3 2 10 15 11 9 6 5 4 7 6 6 4 3 2 4 6 3 4 4 4 8 4 3 3 3 4 9 9 15 17 9 7 7 13 13 21 19 16 17 28 37 33 33 35
6 5 4 3 10 13 8 4 4 3 5 5 4 8 5 3 1 3 5 6 8 2 3 5 3 7 9 15 15 15 18 13 10 12 7 17 19 12 14 24 27 27 34 33 32
5 3 8 6 4 5 4 1 5 5 5 3 4 6 4 5 5 4 6 6 2 5 7 5 3 9 10 10 16 17 11 16 16 16 14 17 19 18 22 30 30 32 29 30 33
9 9 2 2 2 1 2 3 6 9 5 6 8 5 6 7 6 6 5 6 7 5 4 3 4 5 3 15 18 2 11 11 12 13 14 19 13 28 23 26 29 37 27 29 35
Wind_Direction
12 7 4 1 358 355 351 349 354 3 39 72 94 109 103 87 69 50 47 34 33 40 24 353 351 322 331 320 341 289 286 41 31 23 71 41 353 38 338 295 78 59 45 16 11
9 6 3 1 358 353 350 354 9 15 76 99 113 120 113 107 87 44 29 23 23 22 41 13 9 333 169 316 303 333 46 48 15 46 5 348 336 10 322 33 51 35 29 29 27
11 8 8 5 359 356 1 12 25 31 86 110 126 127 124 97 82 14 10 26 32 28 4 342 336 334 42 50 5 20 75 332 66 44 335 317 334 330 353 67 59 45 29 28 40
15 13 10 10 4 11 19 27 21 30 93 109 131 117 71 54 77 352 9 32 30 26 11 341 338 2 60 53 4 165 77 17 50 10 329 338 307 103 74 89 85 64 35 37 44
19 16 13 10 12 23 34 46 42 66 92 108 116 107 84 71 38 356 19 9 26 27 26 11 27 337 47 31 350 50 33 5 27 43 0 327 327 354 125 134 129 70 49 48 41
21 18 20 14 20 33 51 54 66 85 94 99 85 59 38 75 14 359 16 13 29 41 23 33 14 357 352 30 19 3 348 109 61 72 59 354 316 152 148 172 196 197 114 60 42
21 20 26 18 27 41 58 65 79 97 100 99 90 78 72 42 17 9 17 6 24 31 23 26 29 36 325 318 338 285 201 187 88 15 42 342 274 202 140 178 344 356 94 69 45
19 20 25 18 29 45 65 80 98 96 113 90 76 74 74 29 25 22 27 15 12 26 26 23 47 357 357 301 230 234 267 19 108 47 46 17 304 9 308 69 20 359 46 64 55
18 18 27 21 43 67 87 85 88 91 100 82 45 100 65 23 23 10 10 12 352 346 356 12 30 29 21 329 221 56 4 359 340 57 14 23 281 276 304 359 356 16 46 51 55
17 17 31 37 75 95 96 90 76 79 56 51 30 94 45 16 18 11 20 355 339 354 202 4 355 50 32 27 34 335 340 318 318 337 346 307 276 284 311 77 30 69 101 73 41
17 17 29 37 58 183 131 4 38 44 57 69 56 80 36 10 336 17 22 354 16 26 44 47 62 41 9 34 321 273 311 306 343 318 336 282 287 277 276 143 123 98 63 44 16
14 19 32 41 38 69 183 144 110 130 75 62 67 59 25 28 28 8 30 35 18 26 7 91 56 16 337 29 342 324 303 330 299 334 315 294 290 334 54 67 66 65 40 25 16
11 19 27 60 43 51 87 120 129 132 117 59 48 36 16 28 36 6 13 354 24 33 53 71 35 340 5 43 356 339 24 327 300 319 285 314 291 117 85 92 95 92 49 23 10
13 17 27 51 43 59 82 136 147 104 151 29 9 16 1 6 59 17 10 4 12 32 17 60 26 353 30 38 0 316 12 315 300 313 305 12 288 328 132 115 140 62 38 6 1
17 19 25 49 52 49 23 202 205 303 204 18 26 0 33 62 357 7 6 32 36 13 275 74 30 2 25 0 340 291 325 291 286 280 289 292 340 98 147 86 52 35 14 5 359
17 19 30 36 27 21 28 116 130 234 79 68 32 6 43 40 41 15 26 29 15 306 73 82 85 40 358 323 297 298 312 294 266 233 249 39 358 268 57 61 54 26 17 6 349
13 16 33 30 6 1 46 102 223 37 250 57 0 353 72 15 28 15 68 48 26 343 18 183 102 101 9 328 342 0 347 332 353 249 267 12 342 62 84 67 19 12 1 348 348
6 19 38 12 8 5 69 226 56 76 51 190 344 72 66 7 69 40 71 52 34 5 304 346 297 15 23 40 313 317 358 344 298 333 298 324 293 76 122 39 9 5 359 353 349
6 53 23 8 17 15 40 52 22 23 357 349 243 279 122 65 273 35 72 39 31 18 22 348 324 312 77 341 4 2 47 298 284 261 263 253 318 335 340 353 5 356 356 347 354
30 87 6 25 38 26 59 95 92 27 355 297 15 4 12 22 0 14 46 21 40 30 348 39 288 1 305 271 178 227 215 20 288 311 308 304 309 301 344 338 348 352 354 354 358
67 125 0 59 46 41 71 71 108 53 18 16 20 33 78 26 12 22 47 65 18 355 314 346 218 297 323 20 31 12 352 349 338 307 291 304 290 341 309 336 335 6 346 348 345
42 64 10 65 39 49 53 64 112 62 41 54 52 42 28 27 29 50 37 32 14 348 358 37 316 303 312 86 85 75 28 358 10 306 299 285 287 310 341 347 350 345 346 344 342
55 37 9 58 68 80 115 84 60 92 33 42 74 41 34 53 43 36 48 49 19 12 20 348 350 316 188 109 132 22 355 326 299 289 285 289 292 321 360 351 344 341 326 346 341
61 36 25 58 38 108 120 115 106 49 73 62 94 72 66 58 56 55 37 91 40 28 3 281 289 290 266 300 328 312 310 298 274 272 283 295 321 351 353 346 344 323 330 337 338
64 68 52 21 26 41 45 26 102 92 62 46 57 50 54 56 1 66 39 6 117 58 327 22 288 316 323 300 293 295 335 348 4 347 342 331 334 354 349 321 312 319 326 339 331
69 78 71 87 72 64 35 48 117 94 19 81 118 97 55 62 25 20 16 46 5 0 350 68 289 322 302 308 336 314 1 357 355 354 336 334 326 0 328 320 325 332 342 332 323
73 87 78 56 54 350 11 88 124 125 55 55 111 125 91 71 14 2 335 319 313 338 334 346 328 335 289 344 299 75 23 357 346 333 330 334 344 328 320 324 328 326 328 315 328